Torna al catalogo

STARLINK-2481

AttivoComunicazioniVLEO
NORAD 48138·PAYLOAD·🇺🇸 United States

Lanciato Apr 7, 2021 da Cape Canaveral Space Force Station

Loading…

Prossimi Passaggi (prossime 24 ore)

TLE

AggiornatoSource: CelesTrak SupGP

Epoca: Sep 15, 2026, 02:42 UTC

1 48138C 21027AY  26258.11298611  .00071936  00000+0  23116-2 0  2586
2 48138  53.1607   6.2272 0001096  75.1932 299.8099 15.31690115    19

Traccia STARLINK-2481 in tempo reale con AllMySat

Download on the App Store